Time,TemperatureF,DewpointF,PressureIn,WindDirection,WindDirectionDegrees,WindSpeedMPH,WindSpeedGustMPH,Humidity,HourlyPrecipIn,Conditions,Clouds,dailyrainin,SoftwareType,DateUTC
2013-11-22 00:00:00,27.4,23.7,30.56,NNE,23,4.3,4.3,86,0.00,,,0.00,WUHU216HW,2013-11-22 06:00:00,
2013-11-22 00:05:00,27.4,23.7,30.56,NNE,23,4.3,4.3,86,0.00,,,0.00,WUHU216HW,2013-11-22 06:05:00,
2013-11-22 00:30:00,27.0,23.0,30.56,NW,315,1.8,1.8,85,0.00,,,0.00,WUHU216HW,2013-11-22 06:30:00,
2013-11-22 00:35:00,27.0,23.0,30.56,NW,315,1.8,1.8,85,0.00,,,0.00,WUHU216HW,2013-11-22 06:35:00,
2013-11-22 01:00:00,26.8,22.9,30.56,WNW,293,1.1,1.1,85,0.00,,,0.00,WUHU216HW,2013-11-22 07:00:00,
2013-11-22 01:05:00,26.8,22.9,30.56,WNW,293,1.1,1.1,85,0.00,,,0.00,WUHU216HW,2013-11-22 07:05:00,
2013-11-22 01:30:00,26.1,22.1,30.57,NW,315,3.1,3.1,85,0.00,,,0.00,WUHU216HW,2013-11-22 07:30:00,
2013-11-22 01:35:00,26.1,22.1,30.57,NW,315,3.1,3.1,85,0.00,,,0.00,WUHU216HW,2013-11-22 07:35:00,
2013-11-22 02:00:00,25.7,21.9,30.58,North,0,1.3,1.3,85,0.00,,,0.00,WUHU216HW,2013-11-22 08:00:00,
2013-11-22 02:05:00,25.7,21.9,30.58,North,0,1.3,1.3,85,0.00,,,0.00,WUHU216HW,2013-11-22 08:05:00,
2013-11-22 02:30:00,25.6,21.7,30.58,North,0,0.2,0.2,85,0.00,,,0.00,WUHU216HW,2013-11-22 08:30:00,
2013-11-22 02:35:00,25.6,21.7,30.58,North,0,0.2,0.2,85,0.00,,,0.00,WUHU216HW,2013-11-22 08:35:00,
2013-11-22 02:59:00,25.6,21.7,30.58,NNW,338,0.9,0.9,85,0.00,,,0.00,WUHU216HW,2013-11-22 08:59:00,
2013-11-22 03:00:00,25.6,21.7,30.58,NNW,338,0.9,0.9,85,0.00,,,0.00,WUHU216HW,2013-11-22 09:00:00,
2013-11-22 03:05:00,25.6,21.7,30.58,NNW,338,0.9,0.9,85,0.00,,,0.00,WUHU216HW,2013-11-22 09:05:00,
2013-11-22 03:30:00,25.0,21.2,30.59,NW,315,1.8,1.8,85,0.00,,,0.00,WUHU216HW,2013-11-22 09:30:00,
2013-11-22 03:35:00,25.0,21.2,30.59,NW,315,1.8,1.8,85,0.00,,,0.00,WUHU216HW,2013-11-22 09:35:00,
2013-11-22 04:00:00,24.7,20.5,30.59,NNW,338,0.7,0.7,84,0.00,,,0.00,WUHU216HW,2013-11-22 10:00:00,
2013-11-22 04:05:00,24.7,20.5,30.59,NNW,338,0.7,0.7,84,0.00,,,0.00,WUHU216HW,2013-11-22 10:05:00,
2013-11-22 04:30:00,24.7,20.5,30.60,North,0,0.9,0.9,84,0.00,,,0.00,WUHU216HW,2013-11-22 10:30:00,
2013-11-22 04:35:00,24.7,20.5,30.60,North,0,0.9,0.9,84,0.00,,,0.00,WUHU216HW,2013-11-22 10:35:00,
2013-11-22 05:00:00,24.3,20.2,30.59,NW,315,3.4,3.4,84,0.00,,,0.00,WUHU216HW,2013-11-22 11:00:00,
2013-11-22 05:05:00,24.3,20.2,30.59,NNW,338,2.5,3.4,84,0.00,,,0.00,WUHU216HW,2013-11-22 11:05:00,
2013-11-22 05:10:00,24.3,20.2,30.59,NNW,338,2.5,2.5,84,0.00,,,0.00,WUHU216HW,2013-11-22 11:10:00,
2013-11-22 05:30:00,24.1,20.0,30.60,NNW,338,1.1,1.1,84,0.00,,,0.00,WUHU216HW,2013-11-22 11:30:00,
2013-11-22 05:35:00,24.1,20.0,30.60,NNW,338,1.1,1.1,84,0.00,,,0.00,WUHU216HW,2013-11-22 11:35:00,
2013-11-22 06:00:00,23.9,19.5,30.60,WNW,293,1.8,1.8,83,0.00,,,0.00,WUHU216HW,2013-11-22 12:00:00,
2013-11-22 06:05:00,23.9,19.5,30.60,NNW,338,1.3,1.8,83,0.00,,,0.00,WUHU216HW,2013-11-22 12:05:00,
2013-11-22 06:10:00,23.9,19.5,30.60,NNW,338,1.3,1.3,83,0.00,,,0.00,WUHU216HW,2013-11-22 12:10:00,
2013-11-22 06:30:00,23.9,19.5,30.62,North,0,1.1,1.1,83,0.00,,,0.00,WUHU216HW,2013-11-22 12:30:00,
2013-11-22 06:35:00,23.9,19.5,30.62,North,0,1.1,1.1,83,0.00,,,0.00,WUHU216HW,2013-11-22 12:35:00,
2013-11-22 07:00:00,23.9,19.5,30.63,NW,315,3.6,3.6,83,0.00,,,0.00,WUHU216HW,2013-11-22 13:00:00,
2013-11-22 07:05:00,23.9,19.5,30.63,NW,315,1.8,3.6,83,0.00,,,0.00,WUHU216HW,2013-11-22 13:05:00,
2013-11-22 07:10:00,23.9,19.5,30.63,NW,315,1.8,1.8,83,0.00,,,0.00,WUHU216HW,2013-11-22 13:10:00,
2013-11-22 07:30:00,23.9,19.3,30.64,NW,315,1.8,1.8,82,0.00,,,0.00,WUHU216HW,2013-11-22 13:30:00,
2013-11-22 07:35:00,23.9,19.3,30.64,NW,315,1.8,1.8,82,0.00,,,0.00,WUHU216HW,2013-11-22 13:35:00,
2013-11-22 08:00:00,24.1,19.2,30.65,NNW,338,1.1,1.1,81,0.00,,,0.00,WUHU216HW,2013-11-22 14:00:00,
2013-11-22 08:05:00,24.1,19.2,30.65,NNW,338,1.1,1.1,81,0.00,,,0.00,WUHU216HW,2013-11-22 14:05:00,
2013-11-22 08:10:00,24.1,19.2,30.65,NNW,338,1.1,1.1,81,0.00,,,0.00,WUHU216HW,2013-11-22 14:10:00,
2013-11-22 08:30:00,24.5,19.3,30.64,NNW,338,0.4,0.4,80,0.00,,,0.00,WUHU216HW,2013-11-22 14:30:00,
2013-11-22 08:35:00,24.5,19.3,30.64,NNW,338,0.4,0.4,80,0.00,,,0.00,WUHU216HW,2013-11-22 14:35:00,
2013-11-22 09:00:00,24.8,19.3,30.64,NNW,338,1.1,1.1,79,0.00,,,0.00,WUHU216HW,2013-11-22 15:00:00,
2013-11-22 09:05:00,24.8,19.3,30.64,NNW,338,1.1,1.1,79,0.00,,,0.00,WUHU216HW,2013-11-22 15:05:00,
2013-11-22 09:30:00,25.9,20.3,30.64,NNE,23,1.8,1.8,79,0.00,,,0.00,WUHU216HW,2013-11-22 15:30:00,
2013-11-22 09:35:00,25.9,20.3,30.64,NNE,23,1.8,1.8,79,0.00,,,0.00,WUHU216HW,2013-11-22 15:35:00,
2013-11-22 10:00:00,27.2,20.5,30.64,NW,315,0.9,0.9,76,0.00,,,0.00,WUHU216HW,2013-11-22 16:00:00,
2013-11-22 10:05:00,27.4,20.7,30.64,WNW,293,1.3,1.3,76,0.00,,,0.00,WUHU216HW,2013-11-22 16:05:00,
2013-11-22 10:10:00,27.4,20.7,30.64,WNW,293,1.3,1.3,76,0.00,,,0.00,WUHU216HW,2013-11-22 16:10:00,
2013-11-22 10:30:00,30.4,22.8,30.64,ENE,68,1.6,1.6,73,0.00,,,0.00,WUHU216HW,2013-11-22 16:30:00,
2013-11-22 10:35:00,30.4,22.8,30.64,ENE,68,1.6,1.6,73,0.00,,,0.00,WUHU216HW,2013-11-22 16:35:00,
2013-11-22 11:00:00,30.8,22.5,30.63,WNW,293,2.7,2.7,71,0.00,,,0.00,WUHU216HW,2013-11-22 17:00:00,
2013-11-22 11:05:00,30.8,22.5,30.63,WNW,293,2.7,2.7,71,0.00,,,0.00,WUHU216HW,2013-11-22 17:05:00,
2013-11-22 11:30:00,30.1,21.4,30.63,NW,315,1.8,1.8,70,0.00,,,0.00,WUHU216HW,2013-11-22 17:30:00,
2013-11-22 11:35:00,30.1,21.4,30.63,NW,315,1.8,1.8,70,0.00,,,0.00,WUHU216HW,2013-11-22 17:35:00,
2013-11-22 12:00:00,30.8,21.1,30.61,North,0,1.8,1.8,67,0.00,,,0.00,WUHU216HW,2013-11-22 18:00:00,
2013-11-22 12:05:00,30.8,21.1,30.61,North,0,1.8,1.8,67,0.00,,,0.00,WUHU216HW,2013-11-22 18:05:00,
2013-11-22 12:30:00,32.2,22.5,30.59,West,270,1.6,1.6,67,0.00,,,0.00,WUHU216HW,2013-11-22 18:30:00,
2013-11-22 12:35:00,32.2,22.5,30.59,West,270,1.6,1.6,67,0.00,,,0.00,WUHU216HW,2013-11-22 18:35:00,
2013-11-22 13:00:00,33.1,22.2,30.58,NW,315,2.7,2.7,64,0.00,,,0.00,WUHU216HW,2013-11-22 19:00:00,
2013-11-22 13:05:00,33.1,22.2,30.58,NW,315,2.7,2.7,64,0.00,,,0.00,WUHU216HW,2013-11-22 19:05:00,
2013-11-22 13:30:00,33.8,21.8,30.57,SW,225,1.6,1.6,61,0.00,,,0.00,WUHU216HW,2013-11-22 19:30:00,
2013-11-22 13:35:00,33.8,21.8,30.57,SW,225,1.6,1.6,61,0.00,,,0.00,WUHU216HW,2013-11-22 19:35:00,
2013-11-22 14:00:00,33.7,20.4,30.57,WSW,248,1.6,1.6,58,0.00,,,0.00,WUHU216HW,2013-11-22 20:00:00,
2013-11-22 14:05:00,33.7,20.4,30.57,WSW,248,1.6,1.6,58,0.00,,,0.00,WUHU216HW,2013-11-22 20:05:00,
2013-11-22 14:30:00,32.6,19.5,30.55,NE,45,0.4,0.4,58,0.00,,,0.00,WUHU216HW,2013-11-22 20:30:00,
2013-11-22 14:35:00,32.6,19.5,30.55,NE,45,0.4,0.4,58,0.00,,,0.00,WUHU216HW,2013-11-22 20:35:00,
2013-11-22 15:00:00,31.5,17.6,30.54,West,270,3.4,3.4,56,0.00,,,0.00,WUHU216HW,2013-11-22 21:00:00,
2013-11-22 15:05:00,31.5,17.6,30.54,West,270,3.4,3.4,56,0.00,,,0.00,WUHU216HW,2013-11-22 21:05:00,
2013-11-22 15:30:00,30.1,17.0,30.54,WSW,248,2.5,2.5,58,0.00,,,0.00,WUHU216HW,2013-11-22 21:30:00,
2013-11-22 15:35:00,30.1,17.0,30.54,WSW,248,2.5,2.5,58,0.00,,,0.00,WUHU216HW,2013-11-22 21:35:00,
2013-11-22 16:00:00,29.0,15.7,30.53,WSW,248,2.2,2.2,57,0.00,,,0.00,WUHU216HW,2013-11-22 22:00:00,
2013-11-22 16:05:00,29.0,15.7,30.53,WSW,248,2.2,2.2,57,0.00,,,0.00,WUHU216HW,2013-11-22 22:05:00,
2013-11-22 16:30:00,27.7,15.2,30.54,NNW,338,2.2,2.2,59,0.00,,,0.00,WUHU216HW,2013-11-22 22:30:00,
2013-11-22 16:35:00,27.7,15.2,30.54,NNW,338,2.2,2.2,59,0.00,,,0.00,WUHU216HW,2013-11-22 22:35:00,
2013-11-22 17:00:00,26.6,14.6,30.54,West,270,1.1,1.1,60,0.00,,,0.00,WUHU216HW,2013-11-22 23:00:00,
2013-11-22 17:05:00,26.6,14.6,30.54,West,270,1.1,1.1,60,0.00,,,0.00,WUHU216HW,2013-11-22 23:05:00,
2013-11-22 17:10:00,26.6,14.6,30.54,West,270,1.1,1.1,60,0.00,,,0.00,WUHU216HW,2013-11-22 23:10:00,
2013-11-22 17:30:00,25.9,14.0,30.54,SW,225,4.7,4.7,60,0.00,,,0.00,WUHU216HW,2013-11-22 23:30:00,
2013-11-22 17:35:00,25.9,14.0,30.54,SW,225,4.7,4.7,60,0.00,,,0.00,WUHU216HW,2013-11-22 23:35:00,
2013-11-22 18:00:00,25.0,13.8,30.54,SW,225,1.6,1.6,62,0.00,,,0.00,WUHU216HW,2013-11-23 00:00:00,
2013-11-22 18:05:00,25.0,13.8,30.54,SW,225,1.6,1.6,62,0.00,,,0.00,WUHU216HW,2013-11-23 00:05:00,
2013-11-22 18:10:00,25.0,13.8,30.54,SW,225,1.6,1.6,62,0.00,,,0.00,WUHU216HW,2013-11-23 00:10:00,
2013-11-22 18:30:00,23.9,13.5,30.54,SW,225,0.7,0.7,64,0.00,,,0.00,WUHU216HW,2013-11-23 00:30:00,
2013-11-22 18:35:00,23.9,13.5,30.54,SW,225,0.7,0.7,64,0.00,,,0.00,WUHU216HW,2013-11-23 00:35:00,
2013-11-22 19:00:00,23.0,13.3,30.54,West,270,0.0,0.0,66,0.00,,,0.00,WUHU216HW,2013-11-23 01:00:00,
2013-11-22 19:05:00,23.0,13.3,30.54,West,270,0.0,0.0,66,0.00,,,0.00,WUHU216HW,2013-11-23 01:05:00,
2013-11-22 19:10:00,23.0,13.3,30.54,West,270,0.0,0.0,66,0.00,,,0.00,WUHU216HW,2013-11-23 01:10:00,
2013-11-22 19:30:00,21.8,12.8,30.54,NW,315,0.0,0.0,68,0.00,,,0.00,WUHU216HW,2013-11-23 01:30:00,
2013-11-22 19:35:00,21.8,12.8,30.54,NW,315,0.0,0.0,68,0.00,,,0.00,WUHU216HW,2013-11-23 01:35:00,
2013-11-22 20:00:00,22.5,13.5,30.54,WNW,293,1.8,1.8,68,0.00,,,0.00,WUHU216HW,2013-11-23 02:00:00,
2013-11-22 20:05:00,22.5,13.5,30.54,NW,315,1.8,1.8,68,0.00,,,0.00,WUHU216HW,2013-11-23 02:05:00,
2013-11-22 20:10:00,22.5,13.5,30.54,NW,315,1.8,1.8,68,0.00,,,0.00,WUHU216HW,2013-11-23 02:10:00,
2013-11-22 20:30:00,22.1,14.5,30.55,NW,315,0.4,0.4,72,0.00,,,0.00,WUHU216HW,2013-11-23 02:30:00,
2013-11-22 20:35:00,22.1,14.5,30.55,NW,315,0.4,0.4,72,0.00,,,0.00,WUHU216HW,2013-11-23 02:35:00,
2013-11-22 21:00:00,21.2,14.5,30.56,NNW,338,4.0,4.0,75,0.00,,,0.00,WUHU216HW,2013-11-23 03:00:00,
2013-11-22 21:05:00,21.1,14.3,30.56,NNW,338,4.0,4.0,75,0.00,,,0.00,WUHU216HW,2013-11-23 03:05:00,
2013-11-22 21:10:00,21.1,14.3,30.56,NNW,338,4.0,4.0,75,0.00,,,0.00,WUHU216HW,2013-11-23 03:10:00,
2013-11-22 21:30:00,19.8,12.8,30.56,North,0,1.6,1.6,74,0.00,,,0.00,WUHU216HW,2013-11-23 03:30:00,
2013-11-22 21:35:00,19.8,12.8,30.56,North,0,1.6,1.6,74,0.00,,,0.00,WUHU216HW,2013-11-23 03:35:00,
2013-11-22 22:00:00,19.3,11.9,30.56,NW,315,1.1,1.1,73,0.00,,,0.00,WUHU216HW,2013-11-23 04:00:00,
2013-11-22 22:05:00,19.3,11.9,30.56,NNW,338,0.7,1.1,73,0.00,,,0.00,WUHU216HW,2013-11-23 04:05:00,
2013-11-22 22:10:00,19.3,11.9,30.56,NNW,338,0.7,0.7,73,0.00,,,0.00,WUHU216HW,2013-11-23 04:10:00,